Location: Doverdale
(52.2833°N, 2.2000°W)
Time: 03:14:53
(UTC+00:00)

Cosmos 2058 - Pass Details

Date: 29 October 2020
Orbit: 562 x 584 km, 82.5° (Epoch: 24 November)

Event Time Altitude Azimuth Distance (km) Brightness Sun altitude
Rises 19:04:26 0° 343° (NNW) 2,769 6.7 -21.8°
Reaches altitude 10° 19:06:44 10° 335° (NNW) 1,867 5.9 -22.2°
Maximum altitude 19:10:31 37° 268° (W) 889 4.4 -22.8°
Drops below altitude 10° 19:14:17 10° 201° (SSW) 1,855 5.6 -23.3°
Sets 19:16:33 0° 193° (SSW) 2,748 6.4 -23.7°
